Location: Unspecified
(39.8114°N, 0.0000°E)
Time: 12:17:28
(UTC+00:00)

SO-50 - Visible Passes

Search period start: 04 April 2026 00:00
Search period end: 14 April 2026 00:00
Orbit: 568 x 673 km, 64.6° (Epoch: 29 March)

Date Brightness Start Highest point End Pass type
(mag) Time Alt. Az. Time Alt. Az. Time Alt. Az.
4 Apr ? 19:21:05 10° NNE 19:22:51 12° NE 19:24:37 10° ENE visible
4 Apr ? 20:58:57 10° NNW 21:02:33 48° N 21:02:33 48° N visible
5 Apr ? 19:37:28 10° N 19:41:00 20° NE 19:42:50 16° ENE visible
5 Apr ? 21:16:39 10° NW 21:20:00 41° WNW 21:20:00 41° WNW visible
6 Apr ? 19:54:33 10° NNW 19:58:58 35° NE 20:00:20 29° E visible
6 Apr ? 21:34:47 10° NW 21:37:30 24° W 21:37:30 24° W visible
7 Apr ? 20:11:57 10° NNW 20:16:44 70° ENE 20:17:54 49° ESE visible
7 Apr ? 21:53:58 10° W 21:55:04 12° W 21:55:04 12° W visible
8 Apr ? 18:50:26 10° N 18:54:01 20° NE 18:57:32 10° E visible
8 Apr ? 20:29:39 10° NW 20:34:20 56° WSW 20:35:31 43° SSW visible
9 Apr ? 19:07:31 10° NNW 19:11:58 36° NE 19:16:03 11° ESE visible
9 Apr ? 20:47:47 10° NW 20:51:45 26° WSW 20:53:14 22° SW visible
10 Apr ? 19:24:55 10° NNW 19:29:42 72° ENE 19:33:50 13° SE visible
10 Apr ? 21:07:04 10° W 21:09:00 12° WSW 21:10:56 10° SW visible
11 Apr ? 19:42:37 10° NW 19:47:17 54° WSW 19:51:42 11° SSE visible
12 Apr ? 20:00:46 10° WNW 20:04:41 26° WSW 20:08:30 10° SSW visible
13 Apr ? 20:20:08 10° W 20:21:55 12° WSW 20:23:40 10° SW visible
